Flag for Montserrat Weather past 2 weeks in Brades, Montserrat

Now
75 °F

Passing clouds.


Feels Like: 75 °F
Forecast: 76 / 80 °F
Wind: 1 mph from North

Location: Vc Bird International Antigua Airport


UV Index: 10 (Very high)

Visibility: N/A


Pressure: 29.92 "Hg

Humidity: 83%

Dew point: 70 °F

Location of BradesLocation

Historic Weather in Brades

°F

Brades temperature yesterday

Maximum temperature yesterday: 84 °F (at 12:00 PM)
Minimum temperature yesterday: 73 °F (at 5:00 AM)
Average temperature yesterday: 79 °F

Past Weeks' High & Low Weather Summary

 TemperatureHumidityPressure
High84 °F (Apr 3, 1:00 PM)94% (Apr 13, 3:00 AM)30.12 "Hg (Apr 13, 3:00 AM)
Low70 °F (Apr 3, 5:00 AM)55% (Apr 10, 10:00 AM)29.89 "Hg (Apr 15, 3:00 PM)
Average78 °F72%30.02 "Hg
* Reported Apr 1 4:00 AM — Apr 16 4:00 AM, Brades, Weather by CustomWeather, © 2014

Note: Actual official high and low records may vary slightly from our data, if they occured in-between our weather recording intervals... More about our weather records

Advertising

Historic Weather Conditions — Data for Previous 24 hours

 ConditionsComfort  
Time TempWeatherWind HumidityBarometerVisibility
4:00 AM
Apr 16
75 °FPassing clouds.1 mph83%29.92 "HgN/A
3:00 AM75 °FPassing clouds.2 mph83%29.92 "HgN/A
2:00 AM75 °FPassing clouds.2 mph83%29.95 "HgN/A
1:00 AM77 °FPassing clouds.5 mph79%29.95 "HgN/A
12:00 AM77 °FPassing clouds.5 mph79%29.95 "HgN/A
11:00 PM
Apr 15
77 °FPassing clouds.6 mph79%29.98 "HgN/A
10:00 PM77 °FPassing clouds.5 mph74%29.98 "HgN/A
9:00 PM77 °FPassing clouds.6 mph79%29.95 "HgN/A
6:00 PM79 °FPassing clouds.8 mph70%29.92 "HgN/A
5:00 PM81 °FScattered clouds.7 mph66%29.89 "HgN/A
4:00 PM82 °FScattered clouds.8 mph66%29.89 "HgN/A
3:00 PM82 °FScattered clouds.10 mph66%29.89 "HgN/A
2:00 PM82 °FScattered clouds.12 mph66%29.92 "HgN/A
1:00 PM84 °FScattered clouds.13 mph62%29.92 "HgN/A
12:00 PM84 °FPassing clouds.12 mph62%29.95 "HgN/A
11:00 AM82 °FScattered clouds.10 mph66%29.95 "HgN/A
10:00 AM81 °FScattered clouds.7 mph66%29.95 "HgN/A
9:00 AM81 °FPartly sunny.7 mph66%29.98 "HgN/A
8:00 AM79 °FPartly sunny.5 mph74%29.95 "HgN/A
7:00 AM77 °FPartly sunny.3 mph79%29.95 "HgN/A
6:00 AM75 °FPartly sunny.5 mph78%29.95 "HgN/A
5:00 AM73 °FPassing clouds.6 mph83%29.92 "HgN/A
Weather by CustomWeather, © 2014

See weather overview